This is the latest recevied weather packets stored in our database for station/object KC5TIL. If no packets are shown the sender has not sent any weather packets the latest 10 day(s).
| Time | Temp. | Humidity | Pressure | Rain* | Wind** | Luminosity | Snow |
|---|---|---|---|---|---|---|---|
| 1777768883 | 23.89° C | 37% | 1019.3 hPa | 0 mm | - | 22 W/m² | - |
| 1777768579 | 23.89° C | 38% | 1019.4 hPa | 0 mm | - | 27 W/m² | - |
| 1777768276 | 25° C | 38% | 1019.2 hPa | 0 mm | - | 32 W/m² | - |
| 1777767973 | 25.56° C | 37% | 1019.5 hPa | 0 mm | - | 36 W/m² | - |
| 1777767670 | 25.56° C | 34% | 1019.5 hPa | 0 mm | - | 46 W/m² | - |
| 1777767366 | 24.44° C | 36% | 1019.3 hPa | 0 mm | - | 58 W/m² | - |
| 1777767064 | 25° C | 36% | 1019.3 hPa | 0 mm | - | 75 W/m² | - |
| 1777766761 | 24.44° C | 39% | 1019.4 hPa | 0 mm | - | 87 W/m² | - |
| 1777766458 | 25° C | 36% | 1019.3 hPa | 0 mm | - | 101 W/m² | - |
| 1777766154 | 25.56° C | 35% | 1019.4 hPa | 0 mm | - | 120 W/m² | - |
| 1777765852 | 25.56° C | 33% | 1019.4 hPa | 0 mm | - | 128 W/m² | - |
| 1777765548 | 25° C | 33% | 1019.6 hPa | 0 mm | - | 130 W/m² | - |
| 1777765246 | 25° C | 34% | 1019.3 hPa | 0 mm | - | 162 W/m² | - |
| 1777764946 | 25° C | 35% | 1019.5 hPa | 0 mm | - | 180 W/m² | - |
| 1777764643 | 25° C | 34% | 1019.5 hPa | 0 mm | - | 188 W/m² | - |
| 1777764339 | 25.56° C | 34% | 1019.5 hPa | 0 mm | - | 217 W/m² | - |
| 1777764037 | 25.56° C | 36% | 1019.4 hPa | 0 mm | - | 219 W/m² | - |
| 1777763734 | 25.56° C | 34% | 1019.5 hPa | 0 mm | - | 240 W/m² | - |
| 1777763432 | 25.56° C | 34% | 1019.4 hPa | 0 mm | - | 252 W/m² | - |
| 1777763130 | 25.56° C | 35% | 1019.5 hPa | 0 mm | - | 270 W/m² | - |
| 1777762828 | 26.11° C | 34% | 1019.5 hPa | 0 mm | - | 285 W/m² | - |
| 1777762523 | 25.56° C | 34% | 1019.2 hPa | 0 mm | - | 316 W/m² | - |
| 1777762220 | 25.56° C | 35% | 1019.6 hPa | 0 mm | - | 315 W/m² | - |
| 1777761916 | 26.11° C | 33% | 1019.5 hPa | 0 mm | - | 354 W/m² | - |
| 1777761614 | 26.11° C | 34% | 1019.6 hPa | 0 mm | - | 371 W/m² | - |
* Rain latest hour (hover to see other rain measurements)
** Current wind speed in m/s (hover to see current wind gust speed)